owner,sensor,date,latitude,longitude,relative_humidity,qcFlag 
DISL,ioos:station:DISL:BSCA:1,2017-07-01T00:00:00Z,30.3288,-87.8293,80.6,1111122 
DISL,ioos:station:DISL:BSCA:1,2017-07-01T00:30:00Z,30.3288,-87.8293,81.3,1111122 
DISL,ioos:station:DISL:BSCA:1,2017-07-01T01:00:00Z,30.3288,-87.8293,83.1,1111122 
DISL,ioos:station:DISL:BSCA:1,2017-07-01T01:30:00Z,30.3288,-87.8293,81.2,1111122 
DISL,ioos:station:DISL:BSCA:1,2017-07-01T02:00:00Z,30.3288,-87.8293,83.8,1111122 
DISL,ioos:station:DISL:BSCA:1,2017-07-01T02:30:00Z,30.3288,-87.8293,83.0,1111122 
DISL,ioos:station:DISL:BSCA:1,2017-07-01T03:00:00Z,30.3288,-87.8293,81.9,1111122 
DISL,ioos:station:DISL:BSCA:1,2017-07-01T03:30:00Z,30.3288,-87.8293,82.8,1111122 
DISL,ioos:station:DISL:BSCA:1,2017-07-01T04:00:00Z,30.3288,-87.8293,81.6,1111122 
DISL,ioos:station:DISL:BSCA:1,2017-07-01T04:30:00Z,30.3288,-87.8293,82.4,1111122 
DISL,ioos:station:DISL:BSCA:1,2017-07-01T05:00:00Z,30.3288,-87.8293,81.2,1111122 
DISL,ioos:station:DISL:BSCA:1,2017-07-01T05:30:00Z,30.3288,-87.8293,81.4,1111122 
DISL,ioos:station:DISL:BSCA:1,2017-07-01T06:00:00Z,30.3288,-87.8293,80.5,1111122 
DISL,ioos:station:DISL:BSCA:1,2017-07-01T06:30:00Z,30.3288,-87.8293,82.5,1111122 
DISL,ioos:station:DISL:BSCA:1,2017-07-01T07:00:00Z,30.3288,-87.8293,79.95,1111122 
DISL,ioos:station:DISL:BSCA:1,2017-07-01T07:30:00Z,30.3288,-87.8293,82.3,1111122 
DISL,ioos:station:DISL:BSCA:1,2017-07-01T08:00:00Z,30.3288,-87.8293,79.47,1111122 
DISL,ioos:station:DISL:BSCA:1,2017-07-01T08:30:00Z,30.3288,-87.8293,82.0,1111122 
DISL,ioos:station:DISL:BSCA:1,2017-07-01T09:00:00Z,30.3288,-87.8293,80.4,1111122 
DISL,ioos:station:DISL:BSCA:1,2017-07-01T09:30:00Z,30.3288,-87.8293,81.4,1111122 
DISL,ioos:station:DISL:BSCA:1,2017-07-01T10:00:00Z,30.3288,-87.8293,80.1,1111122 
DISL,ioos:station:DISL:BSCA:1,2017-07-01T10:30:00Z,30.3288,-87.8293,78.97,1111122 
DISL,ioos:station:DISL:BSCA:1,2017-07-01T11:00:00Z,30.3288,-87.8293,82.2,1111122 
DISL,ioos:station:DISL:BSCA:1,2017-07-01T11:30:00Z,30.3288,-87.8293,79.61,1111122 
DISL,ioos:station:DISL:BSCA:1,2017-07-01T12:00:00Z,30.3288,-87.8293,90.7,1111122 
DISL,ioos:station:DISL:BSCA:1,2017-07-01T12:30:00Z,30.3288,-87.8293,79.84,1111122 
DISL,ioos:station:DISL:BSCA:1,2017-07-01T13:00:00Z,30.3288,-87.8293,84.1,1111122 
DISL,ioos:station:DISL:BSCA:1,2017-07-01T13:30:00Z,30.3288,-87.8293,89.3,1111122 
DISL,ioos:station:DISL:BSCA:1,2017-07-01T14:00:00Z,30.3288,-87.8293,83.0,1111122 
DISL,ioos:station:DISL:BSCA:1,2017-07-01T14:30:00Z,30.3288,-87.8293,80.8,1111122 
DISL,ioos:station:DISL:BSCA:1,2017-07-01T15:00:00Z,30.3288,-87.8293,82.5,1111122 
DISL,ioos:station:DISL:BSCA:1,2017-07-01T15:30:00Z,30.3288,-87.8293,89.6,1111122 
DISL,ioos:station:DISL:BSCA:1,2017-07-01T16:00:00Z,30.3288,-87.8293,88.4,1111122 
DISL,ioos:station:DISL:BSCA:1,2017-07-01T16:30:00Z,30.3288,-87.8293,87.5,1111122 
DISL,ioos:station:DISL:BSCA:1,2017-07-01T17:00:00Z,30.3288,-87.8293,80.4,1111122 
DISL,ioos:station:DISL:BSCA:1,2017-07-01T17:30:00Z,30.3288,-87.8293,76.9,1111122 
DISL,ioos:station:DISL:BSCA:1,2017-07-01T18:00:00Z,30.3288,-87.8293,77.57,1111122 
DISL,ioos:station:DISL:BSCA:1,2017-07-01T18:30:00Z,30.3288,-87.8293,75.64,1111122 
DISL,ioos:station:DISL:BSCA:1,2017-07-01T19:00:00Z,30.3288,-87.8293,73.17,1111122 
DISL,ioos:station:DISL:BSCA:1,2017-07-01T19:30:00Z,30.3288,-87.8293,71.34,1111122 
DISL,ioos:station:DISL:BSCA:1,2017-07-01T20:00:00Z,30.3288,-87.8293,74.73,1111122 
DISL,ioos:station:DISL:BSCA:1,2017-07-01T20:30:00Z,30.3288,-87.8293,75.27,1111122 
DISL,ioos:station:DISL:BSCA:1,2017-07-01T21:00:00Z,30.3288,-87.8293,74.59,1111122 
DISL,ioos:station:DISL:BSCA:1,2017-07-01T21:30:00Z,30.3288,-87.8293,75.98,1111122 
DISL,ioos:station:DISL:BSCA:1,2017-07-01T22:00:00Z,30.3288,-87.8293,74.32,1111122 
DISL,ioos:station:DISL:BSCA:1,2017-07-01T22:30:00Z,30.3288,-87.8293,78.12,1111122 
DISL,ioos:station:DISL:BSCA:1,2017-07-01T23:00:00Z,30.3288,-87.8293,77.03,1111122 
DISL,ioos:station:DISL:BSCA:1,2017-07-01T23:30:00Z,30.3288,-87.8293,81.8,1111122 
DISL,ioos:station:DISL:BSCA:1,2017-07-02T00:00:00Z,30.3288,-87.8293,80.6,1111122 
DISL,ioos:station:DISL:BSCA:1,2017-07-02T00:30:00Z,30.3288,-87.8293,76.66,1111122 
DISL,ioos:station:DISL:BSCA:1,2017-07-02T01:00:00Z,30.3288,-87.8293,79.71,1111122 
DISL,ioos:station:DISL:BSCA:1,2017-07-02T01:30:00Z,30.3288,-87.8293,73.95,1111122 
DISL,ioos:station:DISL:BSCA:1,2017-07-02T02:00:00Z,30.3288,-87.8293,71.04,1111122 
DISL,ioos:station:DISL:BSCA:1,2017-07-02T02:30:00Z,30.3288,-87.8293,73.24,1111122 
DISL,ioos:station:DISL:BSCA:1,2017-07-02T03:00:00Z,30.3288,-87.8293,74.42,1111122 
DISL,ioos:station:DISL:BSCA:1,2017-07-02T03:30:00Z,30.3288,-87.8293,75.68,1111122 
DISL,ioos:station:DISL:BSCA:1,2017-07-02T04:00:00Z,30.3288,-87.8293,74.8,1111122 
DISL,ioos:station:DISL:BSCA:1,2017-07-02T04:30:00Z,30.3288,-87.8293,81.3,1111122 
DISL,ioos:station:DISL:BSCA:1,2017-07-02T05:00:00Z,30.3288,-87.8293,79.13,1111122 
DISL,ioos:station:DISL:BSCA:1,2017-07-02T05:30:00Z,30.3288,-87.8293,80.6,1111122 
DISL,ioos:station:DISL:BSCA:1,2017-07-02T06:00:00Z,30.3288,-87.8293,82.0,1111122 
DISL,ioos:station:DISL:BSCA:1,2017-07-02T06:30:00Z,30.3288,-87.8293,85.8,1111122 
DISL,ioos:station:DISL:BSCA:1,2017-07-02T07:00:00Z,30.3288,-87.8293,84.6,1111122 
DISL,ioos:station:DISL:BSCA:1,2017-07-02T07:30:00Z,30.3288,-87.8293,87.5,1111122 
DISL,ioos:station:DISL:BSCA:1,2017-07-02T08:00:00Z,30.3288,-87.8293,90.8,1111122 
DISL,ioos:station:DISL:BSCA:1,2017-07-02T08:30:00Z,30.3288,-87.8293,88.2,1111122 
DISL,ioos:station:DISL:BSCA:1,2017-07-02T09:00:00Z,30.3288,-87.8293,91.2,1111122 
DISL,ioos:station:DISL:BSCA:1,2017-07-02T09:30:00Z,30.3288,-87.8293,81.1,1111122 
DISL,ioos:station:DISL:BSCA:1,2017-07-02T10:00:00Z,30.3288,-87.8293,83.3,1111122 
DISL,ioos:station:DISL:BSCA:1,2017-07-02T10:30:00Z,30.3288,-87.8293,84.2,1111122 
DISL,ioos:station:DISL:BSCA:1,2017-07-02T11:00:00Z,30.3288,-87.8293,82.1,1111122 
DISL,ioos:station:DISL:BSCA:1,2017-07-02T11:30:00Z,30.3288,-87.8293,80.6,1111122 
DISL,ioos:station:DISL:BSCA:1,2017-07-02T12:00:00Z,30.3288,-87.8293,81.4,1111122 
DISL,ioos:station:DISL:BSCA:1,2017-07-02T12:30:00Z,30.3288,-87.8293,82.0,1111122 
DISL,ioos:station:DISL:BSCA:1,2017-07-02T13:00:00Z,30.3288,-87.8293,81.8,1111122 
DISL,ioos:station:DISL:BSCA:1,2017-07-02T13:30:00Z,30.3288,-87.8293,83.3,1111122 
DISL,ioos:station:DISL:BSCA:1,2017-07-02T14:00:00Z,30.3288,-87.8293,84.8,1111122 
DISL,ioos:station:DISL:BSCA:1,2017-07-02T14:30:00Z,30.3288,-87.8293,85.3,1111122 
DISL,ioos:station:DISL:BSCA:1,2017-07-02T15:00:00Z,30.3288,-87.8293,85.7,1111122 
DISL,ioos:station:DISL:BSCA:1,2017-07-02T15:30:00Z,30.3288,-87.8293,86.4,1111122 
DISL,ioos:station:DISL:BSCA:1,2017-07-02T16:00:00Z,30.3288,-87.8293,83.5,1111122 
DISL,ioos:station:DISL:BSCA:1,2017-07-02T16:30:00Z,30.3288,-87.8293,85.3,1111122 
DISL,ioos:station:DISL:BSCA:1,2017-07-02T17:00:00Z,30.3288,-87.8293,82.5,1111122 
DISL,ioos:station:DISL:BSCA:1,2017-07-02T17:30:00Z,30.3288,-87.8293,82.1,1111122 
DISL,ioos:station:DISL:BSCA:1,2017-07-02T18:00:00Z,30.3288,-87.8293,80.6,1111122 
DISL,ioos:station:DISL:BSCA:1,2017-07-02T18:30:00Z,30.3288,-87.8293,72.15,1111122 
DISL,ioos:station:DISL:BSCA:1,2017-07-02T19:00:00Z,30.3288,-87.8293,73.98,1111122 
DISL,ioos:station:DISL:BSCA:1,2017-07-02T19:30:00Z,30.3288,-87.8293,66.84,1111122 
DISL,ioos:station:DISL:BSCA:1,2017-07-02T20:00:00Z,30.3288,-87.8293,70.36,1111122 
DISL,ioos:station:DISL:BSCA:1,2017-07-02T20:30:00Z,30.3288,-87.8293,73.78,1111122 
DISL,ioos:station:DISL:BSCA:1,2017-07-02T21:00:00Z,30.3288,-87.8293,75.75,1111122 
DISL,ioos:station:DISL:BSCA:1,2017-07-02T21:30:00Z,30.3288,-87.8293,74.39,1111122 
DISL,ioos:station:DISL:BSCA:1,2017-07-02T22:00:00Z,30.3288,-87.8293,76.56,1111122 
DISL,ioos:station:DISL:BSCA:1,2017-07-02T22:30:00Z,30.3288,-87.8293,73.04,1111122 
DISL,ioos:station:DISL:BSCA:1,2017-07-02T23:00:00Z,30.3288,-87.8293,76.8,1111122 
DISL,ioos:station:DISL:BSCA:1,2017-07-02T23:30:00Z,30.3288,-87.8293,77.81,1111122 
DISL,ioos:station:DISL:BSCA:1,2017-07-03T00:00:00Z,30.3288,-87.8293,77.98,1111122 
DISL,ioos:station:DISL:BSCA:1,2017-07-03T00:30:00Z,30.3288,-87.8293,76.19,1111122 
DISL,ioos:station:DISL:BSCA:1,2017-07-03T01:00:00Z,30.3288,-87.8293,80.2,1111122 
DISL,ioos:station:DISL:BSCA:1,2017-07-03T01:30:00Z,30.3288,-87.8293,78.18,1111122 
DISL,ioos:station:DISL:BSCA:1,2017-07-03T02:00:00Z,30.3288,-87.8293,78.66,1111122 
DISL,ioos:station:DISL:BSCA:1,2017-07-03T02:30:00Z,30.3288,-87.8293,82.2,1111122 
DISL,ioos:station:DISL:BSCA:1,2017-07-03T03:00:00Z,30.3288,-87.8293,82.8,1111122 
DISL,ioos:station:DISL:BSCA:1,2017-07-03T03:30:00Z,30.3288,-87.8293,78.86,1111122 
DISL,ioos:station:DISL:BSCA:1,2017-07-03T04:00:00Z,30.3288,-87.8293,75.68,1111122 
DISL,ioos:station:DISL:BSCA:1,2017-07-03T04:30:00Z,30.3288,-87.8293,74.86,1111122 
DISL,ioos:station:DISL:BSCA:1,2017-07-03T05:00:00Z,30.3288,-87.8293,77.24,1111122 
DISL,ioos:station:DISL:BSCA:1,2017-07-03T05:30:00Z,30.3288,-87.8293,77.98,1111122 
DISL,ioos:station:DISL:BSCA:1,2017-07-03T06:00:00Z,30.3288,-87.8293,79.67,1111122 
DISL,ioos:station:DISL:BSCA:1,2017-07-03T06:30:00Z,30.3288,-87.8293,79.54,1111122 
DISL,ioos:station:DISL:BSCA:1,2017-07-03T07:00:00Z,30.3288,-87.8293,80.5,1111122 
DISL,ioos:station:DISL:BSCA:1,2017-07-03T07:30:00Z,30.3288,-87.8293,75.51,1111122 
DISL,ioos:station:DISL:BSCA:1,2017-07-03T08:00:00Z,30.3288,-87.8293,73.65,1111122 
DISL,ioos:station:DISL:BSCA:1,2017-07-03T08:30:00Z,30.3288,-87.8293,73.65,1111122 
DISL,ioos:station:DISL:BSCA:1,2017-07-03T09:00:00Z,30.3288,-87.8293,76.63,1111122 
DISL,ioos:station:DISL:BSCA:1,2017-07-03T09:30:00Z,30.3288,-87.8293,78.8,1111122 
DISL,ioos:station:DISL:BSCA:1,2017-07-03T10:00:00Z,30.3288,-87.8293,80.1,1111122 
DISL,ioos:station:DISL:BSCA:1,2017-07-03T10:30:00Z,30.3288,-87.8293,82.5,1111122 
DISL,ioos:station:DISL:BSCA:1,2017-07-03T11:00:00Z,30.3288,-87.8293,84.1,1111122 
DISL,ioos:station:DISL:BSCA:1,2017-07-03T11:30:00Z,30.3288,-87.8293,79.98,1111122 
DISL,ioos:station:DISL:BSCA:1,2017-07-03T12:00:00Z,30.3288,-87.8293,84.0,1111122 
DISL,ioos:station:DISL:BSCA:1,2017-07-03T12:30:00Z,30.3288,-87.8293,84.6,1111122 
DISL,ioos:station:DISL:BSCA:1,2017-07-03T13:00:00Z,30.3288,-87.8293,86.4,1111122 
DISL,ioos:station:DISL:BSCA:1,2017-07-03T13:30:00Z,30.3288,-87.8293,85.8,1111122 
DISL,ioos:station:DISL:BSCA:1,2017-07-03T14:00:00Z,30.3288,-87.8293,83.1,1111122 
DISL,ioos:station:DISL:BSCA:1,2017-07-03T14:30:00Z,30.3288,-87.8293,85.3,1111122 
DISL,ioos:station:DISL:BSCA:1,2017-07-03T15:00:00Z,30.3288,-87.8293,85.3,1111122 
DISL,ioos:station:DISL:BSCA:1,2017-07-03T15:30:00Z,30.3288,-87.8293,82.0,1111122 
DISL,ioos:station:DISL:BSCA:1,2017-07-03T16:00:00Z,30.3288,-87.8293,77.34,1111122 
DISL,ioos:station:DISL:BSCA:1,2017-07-03T16:30:00Z,30.3288,-87.8293,77.71,1111122 
DISL,ioos:station:DISL:BSCA:1,2017-07-03T17:00:00Z,30.3288,-87.8293,71.04,1111122 
DISL,ioos:station:DISL:BSCA:1,2017-07-03T17:30:00Z,30.3288,-87.8293,70.33,1111122 
DISL,ioos:station:DISL:BSCA:1,2017-07-03T18:00:00Z,30.3288,-87.8293,63.35,1111122 
DISL,ioos:station:DISL:BSCA:1,2017-07-03T18:30:00Z,30.3288,-87.8293,66.4,1111122 
DISL,ioos:station:DISL:BSCA:1,2017-07-03T19:00:00Z,30.3288,-87.8293,69.95,1111122 
DISL,ioos:station:DISL:BSCA:1,2017-07-03T19:30:00Z,30.3288,-87.8293,68.43,1111122 
DISL,ioos:station:DISL:BSCA:1,2017-07-03T20:00:00Z,30.3288,-87.8293,65.58,1111122 
DISL,ioos:station:DISL:BSCA:1,2017-07-03T20:30:00Z,30.3288,-87.8293,71.0,1111122 
DISL,ioos:station:DISL:BSCA:1,2017-07-03T21:00:00Z,30.3288,-87.8293,70.77,1111122 
DISL,ioos:station:DISL:BSCA:1,2017-07-03T21:30:00Z,30.3288,-87.8293,69.68,1111122 
DISL,ioos:station:DISL:BSCA:1,2017-07-03T22:00:00Z,30.3288,-87.8293,66.33,1111122 
DISL,ioos:station:DISL:BSCA:1,2017-07-03T22:30:00Z,30.3288,-87.8293,64.19,1111122 
DISL,ioos:station:DISL:BSCA:1,2017-07-03T23:00:00Z,30.3288,-87.8293,60.87,1111122 
DISL,ioos:station:DISL:BSCA:1,2017-07-03T23:30:00Z,30.3288,-87.8293,57.99,1111122 
DISL,ioos:station:DISL:BSCA:1,2017-07-04T00:00:00Z,30.3288,-87.8293,57.35,1111122 
DISL,ioos:station:DISL:BSCA:1,2017-07-04T00:30:00Z,30.3288,-87.8293,61.04,1111122 
DISL,ioos:station:DISL:BSCA:1,2017-07-04T01:00:00Z,30.3288,-87.8293,62.84,1111122 
DISL,ioos:station:DISL:BSCA:1,2017-07-04T01:30:00Z,30.3288,-87.8293,66.29,1111122 
DISL,ioos:station:DISL:BSCA:1,2017-07-04T02:00:00Z,30.3288,-87.8293,68.83,1111122 
DISL,ioos:station:DISL:BSCA:1,2017-07-04T02:30:00Z,30.3288,-87.8293,72.7,1111122 
DISL,ioos:station:DISL:BSCA:1,2017-07-04T03:00:00Z,30.3288,-87.8293,75.81,1111122 
DISL,ioos:station:DISL:BSCA:1,2017-07-04T03:30:00Z,30.3288,-87.8293,74.25,1111122 
DISL,ioos:station:DISL:BSCA:1,2017-07-04T04:00:00Z,30.3288,-87.8293,74.15,1111122 
DISL,ioos:station:DISL:BSCA:1,2017-07-04T04:30:00Z,30.3288,-87.8293,77.47,1111122 
DISL,ioos:station:DISL:BSCA:1,2017-07-04T05:00:00Z,30.3288,-87.8293,77.81,1111122 
DISL,ioos:station:DISL:BSCA:1,2017-07-04T05:30:00Z,30.3288,-87.8293,81.2,1111122 
DISL,ioos:station:DISL:BSCA:1,2017-07-04T06:00:00Z,30.3288,-87.8293,79.34,1111122 
DISL,ioos:station:DISL:BSCA:1,2017-07-04T06:30:00Z,30.3288,-87.8293,73.51,1111122 
DISL,ioos:station:DISL:BSCA:1,2017-07-04T07:00:00Z,30.3288,-87.8293,75.78,1111122 
DISL,ioos:station:DISL:BSCA:1,2017-07-04T07:30:00Z,30.3288,-87.8293,72.19,1111122 
DISL,ioos:station:DISL:BSCA:1,2017-07-04T08:00:00Z,30.3288,-87.8293,78.25,1111122 
DISL,ioos:station:DISL:BSCA:1,2017-07-04T08:30:00Z,30.3288,-87.8293,77.61,1111122 
DISL,ioos:station:DISL:BSCA:1,2017-07-04T09:00:00Z,30.3288,-87.8293,79.61,1111122 
DISL,ioos:station:DISL:BSCA:1,2017-07-04T09:30:00Z,30.3288,-87.8293,78.01,1111122 
DISL,ioos:station:DISL:BSCA:1,2017-07-04T10:00:00Z,30.3288,-87.8293,74.66,1111122 
DISL,ioos:station:DISL:BSCA:1,2017-07-04T10:30:00Z,30.3288,-87.8293,74.93,1111122 
DISL,ioos:station:DISL:BSCA:1,2017-07-04T11:00:00Z,30.3288,-87.8293,74.39,1111122 
DISL,ioos:station:DISL:BSCA:1,2017-07-04T11:30:00Z,30.3288,-87.8293,75.27,1111122 
DISL,ioos:station:DISL:BSCA:1,2017-07-04T12:00:00Z,30.3288,-87.8293,77.03,1111122 
DISL,ioos:station:DISL:BSCA:1,2017-07-04T12:30:00Z,30.3288,-87.8293,76.08,1111122 
DISL,ioos:station:DISL:BSCA:1,2017-07-04T13:00:00Z,30.3288,-87.8293,76.32,1111122 
DISL,ioos:station:DISL:BSCA:1,2017-07-04T13:30:00Z,30.3288,-87.8293,76.69,1111122 
DISL,ioos:station:DISL:BSCA:1,2017-07-04T14:00:00Z,30.3288,-87.8293,77.54,1111122 
DISL,ioos:station:DISL:BSCA:1,2017-07-04T14:30:00Z,30.3288,-87.8293,77.3,1111122 
DISL,ioos:station:DISL:BSCA:1,2017-07-04T15:00:00Z,30.3288,-87.8293,78.29,1111122 
DISL,ioos:station:DISL:BSCA:1,2017-07-04T15:30:00Z,30.3288,-87.8293,75.85,1111122 
DISL,ioos:station:DISL:BSCA:1,2017-07-04T16:00:00Z,30.3288,-87.8293,76.42,1111122 
DISL,ioos:station:DISL:BSCA:1,2017-07-04T16:30:00Z,30.3288,-87.8293,73.17,1111122 
DISL,ioos:station:DISL:BSCA:1,2017-07-04T17:00:00Z,30.3288,-87.8293,70.73,1111122 
DISL,ioos:station:DISL:BSCA:1,2017-07-04T17:30:00Z,30.3288,-87.8293,70.16,1111122 
DISL,ioos:station:DISL:BSCA:1,2017-07-04T18:00:00Z,30.3288,-87.8293,65.35,1111122 
DISL,ioos:station:DISL:BSCA:1,2017-07-04T18:30:00Z,30.3288,-87.8293,66.19,1111122 
DISL,ioos:station:DISL:BSCA:1,2017-07-04T19:00:00Z,30.3288,-87.8293,72.29,1111122 
DISL,ioos:station:DISL:BSCA:1,2017-07-04T19:30:00Z,30.3288,-87.8293,67.89,1111122 
DISL,ioos:station:DISL:BSCA:1,2017-07-04T20:00:00Z,30.3288,-87.8293,63.96,1111122 
DISL,ioos:station:DISL:BSCA:1,2017-07-04T20:30:00Z,30.3288,-87.8293,61.59,1111122 
DISL,ioos:station:DISL:BSCA:1,2017-07-04T21:00:00Z,30.3288,-87.8293,60.03,1111122 
DISL,ioos:station:DISL:BSCA:1,2017-07-04T21:30:00Z,30.3288,-87.8293,63.72,1111122 
DISL,ioos:station:DISL:BSCA:1,2017-07-04T22:00:00Z,30.3288,-87.8293,60.23,1111122 
DISL,ioos:station:DISL:BSCA:1,2017-07-04T22:30:00Z,30.3288,-87.8293,60.09,1111122 
DISL,ioos:station:DISL:BSCA:1,2017-07-04T23:00:00Z,30.3288,-87.8293,65.11,1111122 
DISL,ioos:station:DISL:BSCA:1,2017-07-04T23:30:00Z,30.3288,-87.8293,60.98,1111122 
DISL,ioos:station:DISL:BSCA:1,2017-07-05T00:00:00Z,30.3288,-87.8293,67.21,1111122 
DISL,ioos:station:DISL:BSCA:1,2017-07-05T00:30:00Z,30.3288,-87.8293,65.45,1111122 
DISL,ioos:station:DISL:BSCA:1,2017-07-05T01:00:00Z,30.3288,-87.8293,66.26,1111122 
DISL,ioos:station:DISL:BSCA:1,2017-07-05T01:30:00Z,30.3288,-87.8293,68.46,1111122 
DISL,ioos:station:DISL:BSCA:1,2017-07-05T02:00:00Z,30.3288,-87.8293,65.24,1111122 
DISL,ioos:station:DISL:BSCA:1,2017-07-05T02:30:00Z,30.3288,-87.8293,64.7,1111122 
DISL,ioos:station:DISL:BSCA:1,2017-07-05T03:00:00Z,30.3288,-87.8293,64.84,1111122 
DISL,ioos:station:DISL:BSCA:1,2017-07-05T03:30:00Z,30.3288,-87.8293,69.44,1111122 
DISL,ioos:station:DISL:BSCA:1,2017-07-05T04:00:00Z,30.3288,-87.8293,68.5,1111122 
DISL,ioos:station:DISL:BSCA:1,2017-07-05T04:30:00Z,30.3288,-87.8293,67.78,1111122 
DISL,ioos:station:DISL:BSCA:1,2017-07-05T05:00:00Z,30.3288,-87.8293,68.53,1111122 
DISL,ioos:station:DISL:BSCA:1,2017-07-05T05:30:00Z,30.3288,-87.8293,74.25,1111122 
DISL,ioos:station:DISL:BSCA:1,2017-07-05T06:00:00Z,30.3288,-87.8293,73.07,1111122 
DISL,ioos:station:DISL:BSCA:1,2017-07-05T06:30:00Z,30.3288,-87.8293,75.34,1111122 
DISL,ioos:station:DISL:BSCA:1,2017-07-05T07:00:00Z,30.3288,-87.8293,74.8,1111122 
DISL,ioos:station:DISL:BSCA:1,2017-07-05T07:30:00Z,30.3288,-87.8293,76.69,1111122 
DISL,ioos:station:DISL:BSCA:1,2017-07-05T08:00:00Z,30.3288,-87.8293,79.1,1111122 
DISL,ioos:station:DISL:BSCA:1,2017-07-05T08:30:00Z,30.3288,-87.8293,77.64,1111122 
DISL,ioos:station:DISL:BSCA:1,2017-07-05T09:00:00Z,30.3288,-87.8293,80.6,1111122 
DISL,ioos:station:DISL:BSCA:1,2017-07-05T09:30:00Z,30.3288,-87.8293,78.35,1111122 
DISL,ioos:station:DISL:BSCA:1,2017-07-05T10:00:00Z,30.3288,-87.8293,79.0,1111122 
DISL,ioos:station:DISL:BSCA:1,2017-07-05T10:30:00Z,30.3288,-87.8293,79.2,1111122 
DISL,ioos:station:DISL:BSCA:1,2017-07-05T11:00:00Z,30.3288,-87.8293,79.3,1111122 
DISL,ioos:station:DISL:BSCA:1,2017-07-05T11:30:00Z,30.3288,-87.8293,78.63,1111122 
DISL,ioos:station:DISL:BSCA:1,2017-07-05T12:00:00Z,30.3288,-87.8293,77.95,1111122 
DISL,ioos:station:DISL:BSCA:1,2017-07-05T12:30:00Z,30.3288,-87.8293,76.12,1111122 
DISL,ioos:station:DISL:BSCA:1,2017-07-05T13:00:00Z,30.3288,-87.8293,75.88,1111122 
DISL,ioos:station:DISL:BSCA:1,2017-07-05T13:30:00Z,30.3288,-87.8293,74.56,1111122 
DISL,ioos:station:DISL:BSCA:1,2017-07-05T14:00:00Z,30.3288,-87.8293,72.53,1111122 
DISL,ioos:station:DISL:BSCA:1,2017-07-05T14:30:00Z,30.3288,-87.8293,74.42,1111122 
DISL,ioos:station:DISL:BSCA:1,2017-07-05T15:00:00Z,30.3288,-87.8293,74.93,1111122 
DISL,ioos:station:DISL:BSCA:1,2017-07-05T15:30:00Z,30.3288,-87.8293,72.46,1111122 
DISL,ioos:station:DISL:BSCA:1,2017-07-05T16:00:00Z,30.3288,-87.8293,73.98,1111122 
DISL,ioos:station:DISL:BSCA:1,2017-07-05T16:30:00Z,30.3288,-87.8293,71.27,1111122 
DISL,ioos:station:DISL:BSCA:1,2017-07-05T17:00:00Z,30.3288,-87.8293,74.56,1111122 
DISL,ioos:station:DISL:BSCA:1,2017-07-05T17:30:00Z,30.3288,-87.8293,72.05,1111122 
DISL,ioos:station:DISL:BSCA:1,2017-07-05T18:00:00Z,30.3288,-87.8293,72.9,1111122 
DISL,ioos:station:DISL:BSCA:1,2017-07-05T18:30:00Z,30.3288,-87.8293,70.73,1111122 
DISL,ioos:station:DISL:BSCA:1,2017-07-05T19:00:00Z,30.3288,-87.8293,68.87,1111122 
DISL,ioos:station:DISL:BSCA:1,2017-07-05T19:30:00Z,30.3288,-87.8293,73.85,1111122 
DISL,ioos:station:DISL:BSCA:1,2017-07-05T20:00:00Z,30.3288,-87.8293,70.53,1111122 
DISL,ioos:station:DISL:BSCA:1,2017-07-05T20:30:00Z,30.3288,-87.8293,72.53,1111122 
DISL,ioos:station:DISL:BSCA:1,2017-07-05T21:00:00Z,30.3288,-87.8293,70.49,1111122 
DISL,ioos:station:DISL:BSCA:1,2017-07-05T21:30:00Z,30.3288,-87.8293,71.95,1111122 
DISL,ioos:station:DISL:BSCA:1,2017-07-05T22:00:00Z,30.3288,-87.8293,65.65,1111122 
DISL,ioos:station:DISL:BSCA:1,2017-07-05T22:30:00Z,30.3288,-87.8293,74.42,1111122 
DISL,ioos:station:DISL:BSCA:1,2017-07-05T23:00:00Z,30.3288,-87.8293,70.39,1111122 
DISL,ioos:station:DISL:BSCA:1,2017-07-05T23:30:00Z,30.3288,-87.8293,69.78,1111122 
DISL,ioos:station:DISL:BSCA:1,2017-07-06T00:00:00Z,30.3288,-87.8293,69.75,1111122 
DISL,ioos:station:DISL:BSCA:1,2017-07-06T00:30:00Z,30.3288,-87.8293,72.22,1111122 
DISL,ioos:station:DISL:BSCA:1,2017-07-06T01:00:00Z,30.3288,-87.8293,77.44,1111122 
DISL,ioos:station:DISL:BSCA:1,2017-07-06T01:30:00Z,30.3288,-87.8293,68.9,1111122 
DISL,ioos:station:DISL:BSCA:1,2017-07-06T02:00:00Z,30.3288,-87.8293,73.14,1111122 
DISL,ioos:station:DISL:BSCA:1,2017-07-06T02:30:00Z,30.3288,-87.8293,76.83,1111122 
DISL,ioos:station:DISL:BSCA:1,2017-07-06T03:00:00Z,30.3288,-87.8293,74.93,1111122 
DISL,ioos:station:DISL:BSCA:1,2017-07-06T03:30:00Z,30.3288,-87.8293,77.17,1111122 
DISL,ioos:station:DISL:BSCA:1,2017-07-06T04:00:00Z,30.3288,-87.8293,75.61,1111122 
DISL,ioos:station:DISL:BSCA:1,2017-07-06T04:30:00Z,30.3288,-87.8293,75.81,1111122 
DISL,ioos:station:DISL:BSCA:1,2017-07-06T05:00:00Z,30.3288,-87.8293,73.98,1111122 
DISL,ioos:station:DISL:BSCA:1,2017-07-06T05:30:00Z,30.3288,-87.8293,75.95,1111122 
DISL,ioos:station:DISL:BSCA:1,2017-07-06T06:00:00Z,30.3288,-87.8293,72.9,1111122 
DISL,ioos:station:DISL:BSCA:1,2017-07-06T06:30:00Z,30.3288,-87.8293,75.85,1111122 
DISL,ioos:station:DISL:BSCA:1,2017-07-06T07:00:00Z,30.3288,-87.8293,78.05,1111122 
DISL,ioos:station:DISL:BSCA:1,2017-07-06T07:30:00Z,30.3288,-87.8293,75.98,1111122 
DISL,ioos:station:DISL:BSCA:1,2017-07-06T08:00:00Z,30.3288,-87.8293,72.66,1111122 
DISL,ioos:station:DISL:BSCA:1,2017-07-06T08:30:00Z,30.3288,-87.8293,76.93,1111122 
DISL,ioos:station:DISL:BSCA:1,2017-07-06T09:00:00Z,30.3288,-87.8293,71.82,1111122 
DISL,ioos:station:DISL:BSCA:1,2017-07-06T09:30:00Z,30.3288,-87.8293,76.66,1111122 
DISL,ioos:station:DISL:BSCA:1,2017-07-06T10:00:00Z,30.3288,-87.8293,79.23,1111122 
DISL,ioos:station:DISL:BSCA:1,2017-07-06T10:30:00Z,30.3288,-87.8293,74.83,1111122 
DISL,ioos:station:DISL:BSCA:1,2017-07-06T11:00:00Z,30.3288,-87.8293,73.27,1111122 
DISL,ioos:station:DISL:BSCA:1,2017-07-06T11:30:00Z,30.3288,-87.8293,72.22,1111122 
DISL,ioos:station:DISL:BSCA:1,2017-07-06T12:00:00Z,30.3288,-87.8293,75.68,1111122 
DISL,ioos:station:DISL:BSCA:1,2017-07-06T12:30:00Z,30.3288,-87.8293,73.34,1111122 
DISL,ioos:station:DISL:BSCA:1,2017-07-06T13:00:00Z,30.3288,-87.8293,74.9,1111122 
DISL,ioos:station:DISL:BSCA:1,2017-07-06T13:30:00Z,30.3288,-87.8293,77.03,1111122 
DISL,ioos:station:DISL:BSCA:1,2017-07-06T14:00:00Z,30.3288,-87.8293,75.81,1111122 
DISL,ioos:station:DISL:BSCA:1,2017-07-06T14:30:00Z,30.3288,-87.8293,70.22,1111122 
DISL,ioos:station:DISL:BSCA:1,2017-07-06T15:00:00Z,30.3288,-87.8293,72.12,1111122 
DISL,ioos:station:DISL:BSCA:1,2017-07-06T15:30:00Z,30.3288,-87.8293,70.66,1111122 
DISL,ioos:station:DISL:BSCA:1,2017-07-06T16:00:00Z,30.3288,-87.8293,72.43,1111122 
DISL,ioos:station:DISL:BSCA:1,2017-07-06T16:30:00Z,30.3288,-87.8293,73.58,1111122 
DISL,ioos:station:DISL:BSCA:1,2017-07-06T17:00:00Z,30.3288,-87.8293,72.49,1111122 
DISL,ioos:station:DISL:BSCA:1,2017-07-06T17:30:00Z,30.3288,-87.8293,72.02,1111122 
DISL,ioos:station:DISL:BSCA:1,2017-07-06T18:00:00Z,30.3288,-87.8293,72.56,1111122 
DISL,ioos:station:DISL:BSCA:1,2017-07-06T18:30:00Z,30.3288,-87.8293,72.46,1111122 
DISL,ioos:station:DISL:BSCA:1,2017-07-06T19:00:00Z,30.3288,-87.8293,71.34,1111122 
DISL,ioos:station:DISL:BSCA:1,2017-07-06T19:30:00Z,30.3288,-87.8293,71.78,1111122 
DISL,ioos:station:DISL:BSCA:1,2017-07-06T20:00:00Z,30.3288,-87.8293,68.97,1111122 
DISL,ioos:station:DISL:BSCA:1,2017-07-06T20:30:00Z,30.3288,-87.8293,69.21,1111122 
DISL,ioos:station:DISL:BSCA:1,2017-07-06T21:00:00Z,30.3288,-87.8293,70.76,1111122 
DISL,ioos:station:DISL:BSCA:1,2017-07-06T21:30:00Z,30.3288,-87.8293,67.37,1111122 
DISL,ioos:station:DISL:BSCA:1,2017-07-06T22:00:00Z,30.3288,-87.8293,70.76,1111122 
DISL,ioos:station:DISL:BSCA:1,2017-07-06T22:30:00Z,30.3288,-87.8293,69.31,1111122 
DISL,ioos:station:DISL:BSCA:1,2017-07-06T23:00:00Z,30.3288,-87.8293,68.29,1111122 
DISL,ioos:station:DISL:BSCA:1,2017-07-06T23:30:00Z,30.3288,-87.8293,73.04,1111122 
DISL,ioos:station:DISL:BSCA:1,2017-07-07T00:00:00Z,30.3288,-87.8293,66.4,1111122 